Location: Newark
(43.6583°N, 1.6617°E)
Time: 09:00:55
(UTC+00:00)

Tiros 1 - Pass Details

Date: 30 August 2019
Orbit: 631 x 664 km, 48.4° (Epoch: 17 September)

Event Time Altitude Azimuth Distance (km) Brightness Sun altitude
Rises 23:45:19 0° 283° (WNW) 2,917 - -37.5°
Reaches altitude 10° 23:47:43 10° 289° (WNW) 2,010 - -37.5°
Maximum altitude 23:52:11 46° 4° (N) 847 - -37.5°
Drops below altitude 10° 23:56:39 10° 78° (ENE) 2,019 - -37.5°
Sets 23:59:04 0° 84° (E) 2,931 - -37.5°
